Location: Santa Maria di Sala
(45.5070°N, 12.0300°E)
Time: 03:40:11
(UTC+02:00)

Envisat - Pass Details

Date: 23 April 2024
Orbit: 762 x 764 km, 98.3° (Epoch: 24 May)

Event Time Altitude Azimuth Distance (km) Brightness Sun altitude
Rises 04:03:56 0° 19° (NNE) 3,239 7.4 -19.9°
Reaches altitude 10° 04:06:22 10° 27° (NNE) 2,308 6.5 -19.6°
Maximum altitude 04:11:11 43° 98° (E) 1,073 4.0 -19.0°
Enters shadow 04:15:48 11° 169° (SSE) 2,227 5.1 -18.4°
